Time,TemperatureF,DewpointF,PressureIn,WindDirection,WindDirectionDegrees,WindSpeedMPH,WindSpeedGustMPH,Humidity,HourlyPrecipIn,Conditions,Clouds,dailyrainin,SolarRadiationWatts/m^2,SoftwareType,DateUTC
2013-04-04 00:12:00,42.0,27.0,-100.00,ESE,106,3.0,6.0,54,0.00,,,0.00,0.000000,,2013-04-04 10:12:00,
2013-04-04 00:23:00,42.0,27.0,-100.00,ESE,106,3.0,6.0,54,0.00,,,0.00,0.000000,,2013-04-04 10:23:00,
2013-04-04 00:32:00,42.0,27.0,-100.00,ESE,106,3.0,6.0,54,0.00,,,0.00,0.000000,,2013-04-04 10:32:00,
2013-04-04 00:42:00,42.0,27.0,-100.00,ESE,106,3.0,6.0,54,0.00,,,0.00,0.000000,,2013-04-04 10:42:00,
2013-04-04 01:12:00,42.0,20.0,-100.00,ESE,108,4.0,6.0,41,0.00,,,0.00,0.000000,,2013-04-04 11:12:00,
2013-04-04 01:22:00,42.0,20.0,-100.00,ESE,108,4.0,6.0,41,0.00,,,0.00,0.000000,,2013-04-04 11:22:00,
2013-04-04 01:32:00,42.0,20.0,-100.00,ESE,108,4.0,6.0,41,0.00,,,0.00,0.000000,,2013-04-04 11:32:00,
2013-04-04 01:42:00,42.0,20.0,-100.00,ESE,108,4.0,6.0,41,0.00,,,0.00,0.000000,,2013-04-04 11:42:00,
2013-04-04 02:12:00,42.0,27.0,-100.00,ESE,110,2.0,5.0,56,0.00,,,0.00,0.000000,,2013-04-04 12:12:00,
2013-04-04 02:22:00,42.0,27.0,-100.00,ESE,110,2.0,5.0,56,0.00,,,0.00,0.000000,,2013-04-04 12:22:00,
2013-04-04 02:32:00,42.0,27.0,-100.00,ESE,110,2.0,5.0,56,0.00,,,0.00,0.000000,,2013-04-04 12:32:00,
2013-04-04 02:42:00,42.0,27.0,-100.00,ESE,110,2.0,5.0,56,0.00,,,0.00,0.000000,,2013-04-04 12:42:00,
2013-04-04 03:12:00,42.0,29.0,-100.00,ENE,66,5.0,5.0,60,0.00,,,0.00,0.000000,,2013-04-04 13:12:00,
2013-04-04 03:22:00,42.0,29.0,-100.00,ENE,66,5.0,5.0,60,0.00,,,0.00,0.000000,,2013-04-04 13:22:00,
2013-04-04 03:32:00,42.0,29.0,-100.00,ENE,66,5.0,5.0,60,0.00,,,0.00,0.000000,,2013-04-04 13:32:00,
2013-04-04 03:42:00,42.0,29.0,-100.00,ENE,66,5.0,5.0,60,0.00,,,0.00,0.000000,,2013-04-04 13:42:00,
2013-04-04 04:12:00,42.0,25.0,-100.00,East,82,4.0,7.0,51,0.00,,,0.00,0.000000,,2013-04-04 14:12:00,
2013-04-04 04:22:00,42.0,25.0,-100.00,East,82,4.0,7.0,51,0.00,,,0.00,0.000000,,2013-04-04 14:22:00,
2013-04-04 04:32:00,42.0,25.0,-100.00,East,82,4.0,7.0,51,0.00,,,0.00,0.000000,,2013-04-04 14:32:00,
2013-04-04 04:42:00,42.0,25.0,-100.00,East,82,4.0,7.0,51,0.00,,,0.00,0.000000,,2013-04-04 14:42:00,
2013-04-04 05:12:00,43.0,19.0,-100.00,East,89,0.0,0.0,38,0.00,,,0.00,0.000000,,2013-04-04 15:12:00,
2013-04-04 05:22:00,43.0,19.0,-100.00,East,89,0.0,0.0,38,0.00,,,0.00,0.000000,,2013-04-04 15:22:00,
2013-04-04 05:33:00,43.0,19.0,-100.00,East,89,0.0,0.0,38,0.00,,,0.00,0.000000,,2013-04-04 15:33:00,
2013-04-04 05:42:00,43.0,19.0,-100.00,East,89,0.0,0.0,38,0.00,,,0.00,0.000000,,2013-04-04 15:42:00,
2013-04-04 06:12:00,42.0,28.0,-100.00,ENE,72,0.0,0.0,57,0.00,,,0.00,0.000000,,2013-04-04 16:12:00,
2013-04-04 06:23:00,42.0,28.0,-100.00,ENE,72,0.0,0.0,57,0.00,,,0.00,0.000000,,2013-04-04 16:23:00,
2013-04-04 06:32:00,42.0,28.0,-100.00,ENE,72,0.0,0.0,57,0.00,,,0.00,0.000000,,2013-04-04 16:32:00,
2013-04-04 06:42:00,42.0,28.0,-100.00,ENE,72,0.0,0.0,57,0.00,,,0.00,0.000000,,2013-04-04 16:42:00,
2013-04-04 07:13:00,41.0,36.0,-100.00,East,82,0.0,0.0,81,0.00,,,0.00,6.000000,,2013-04-04 17:13:00,
2013-04-04 07:22:00,41.0,36.0,-100.00,East,82,0.0,0.0,81,0.00,,,0.00,6.000000,,2013-04-04 17:22:00,
2013-04-04 07:33:00,41.0,36.0,-100.00,East,82,0.0,0.0,81,0.00,,,0.00,6.000000,,2013-04-04 17:33:00,
2013-04-04 07:42:00,41.0,36.0,-100.00,East,82,0.0,0.0,81,0.00,,,0.00,6.000000,,2013-04-04 17:42:00,
2013-04-04 08:12:00,43.0,36.0,-100.00,ESE,111,0.0,2.0,77,0.00,,,0.00,38.000000,,2013-04-04 18:12:00,
2013-04-04 08:22:00,43.0,36.0,-100.00,ESE,111,0.0,2.0,77,0.00,,,0.00,38.000000,,2013-04-04 18:22:00,
2013-04-04 08:32:00,43.0,36.0,-100.00,ESE,111,0.0,2.0,77,0.00,,,0.00,38.000000,,2013-04-04 18:32:00,
2013-04-04 08:42:00,43.0,36.0,-100.00,ESE,111,0.0,2.0,77,0.00,,,0.00,38.000000,,2013-04-04 18:42:00,
2013-04-04 09:12:00,50.0,43.0,-100.00,NNE,13,3.0,6.0,78,0.00,,,0.00,436.000000,,2013-04-04 19:12:00,
2013-04-04 09:22:00,50.0,43.0,-100.00,NNE,13,3.0,6.0,78,0.00,,,0.00,436.000000,,2013-04-04 19:22:00,
2013-04-04 09:32:00,50.0,43.0,-100.00,NNE,13,3.0,6.0,78,0.00,,,0.00,436.000000,,2013-04-04 19:32:00,
2013-04-04 09:42:00,50.0,43.0,-100.00,NNE,13,3.0,6.0,78,0.00,,,0.00,436.000000,,2013-04-04 19:42:00,
2013-04-04 10:12:00,50.0,47.0,-100.00,NW,316,5.0,9.0,88,0.00,,,0.00,509.000000,,2013-04-04 20:12:00,
2013-04-04 10:22:00,50.0,47.0,-100.00,NW,316,5.0,9.0,88,0.00,,,0.00,509.000000,,2013-04-04 20:22:00,
2013-04-04 10:32:00,50.0,47.0,-100.00,NW,316,5.0,9.0,88,0.00,,,0.00,509.000000,,2013-04-04 20:32:00,
2013-04-04 10:42:00,50.0,47.0,-100.00,NW,316,5.0,9.0,88,0.00,,,0.00,509.000000,,2013-04-04 20:42:00,
2013-04-04 11:12:00,51.0,48.0,-100.00,NNW,332,2.0,7.0,90,0.00,,,0.00,344.000000,,2013-04-04 21:12:00,
2013-04-04 11:22:00,51.0,48.0,-100.00,NNW,332,2.0,7.0,90,0.00,,,0.00,344.000000,,2013-04-04 21:22:00,
2013-04-04 11:32:00,51.0,48.0,-100.00,NNW,332,2.0,7.0,90,0.00,,,0.00,344.000000,,2013-04-04 21:32:00,
2013-04-04 11:42:00,51.0,48.0,-100.00,NNW,332,2.0,7.0,90,0.00,,,0.00,344.000000,,2013-04-04 21:42:00,
2013-04-04 12:12:00,53.0,50.0,-100.00,NW,322,5.0,10.0,89,0.00,,,0.00,381.000000,,2013-04-04 22:12:00,
2013-04-04 12:22:00,53.0,50.0,-100.00,NW,322,5.0,10.0,89,0.00,,,0.00,381.000000,,2013-04-04 22:22:00,
2013-04-04 12:33:00,53.0,50.0,-100.00,NW,322,5.0,10.0,89,0.00,,,0.00,381.000000,,2013-04-04 22:33:00,
2013-04-04 12:42:00,53.0,50.0,-100.00,NW,322,5.0,10.0,89,0.00,,,0.00,381.000000,,2013-04-04 22:42:00,
2013-04-04 13:12:00,52.0,50.0,-100.00,NNW,344,4.0,10.0,92,0.00,,,0.00,407.000000,,2013-04-04 23:12:00,
2013-04-04 13:22:00,52.0,50.0,-100.00,NNW,344,4.0,10.0,92,0.00,,,0.00,407.000000,,2013-04-04 23:22:00,
2013-04-04 13:32:00,52.0,50.0,-100.00,NNW,344,4.0,10.0,92,0.00,,,0.00,407.000000,,2013-04-04 23:32:00,
2013-04-04 13:42:00,52.0,50.0,-100.00,NNW,344,4.0,10.0,92,0.00,,,0.00,407.000000,,2013-04-04 23:42:00,
2013-04-04 14:12:00,51.0,48.0,-100.00,WNW,299,5.0,11.0,90,0.00,,,0.00,316.000000,,2013-04-05 00:12:00,
2013-04-04 14:22:00,51.0,48.0,-100.00,WNW,299,5.0,11.0,90,0.00,,,0.00,316.000000,,2013-04-05 00:22:00,
2013-04-04 14:32:00,51.0,48.0,-100.00,WNW,299,5.0,11.0,90,0.00,,,0.00,316.000000,,2013-04-05 00:32:00,
2013-04-04 14:42:00,51.0,48.0,-100.00,WNW,299,5.0,11.0,90,0.00,,,0.00,316.000000,,2013-04-05 00:42:00,
2013-04-04 15:12:00,52.0,48.0,-100.00,NNW,341,5.0,10.0,85,0.00,,,0.00,326.000000,,2013-04-05 01:12:00,
2013-04-04 15:22:00,52.0,48.0,-100.00,NNW,341,5.0,10.0,85,0.00,,,0.00,326.000000,,2013-04-05 01:22:00,
2013-04-04 15:32:00,52.0,48.0,-100.00,NNW,341,5.0,10.0,85,0.00,,,0.00,326.000000,,2013-04-05 01:32:00,
2013-04-04 15:42:00,52.0,48.0,-100.00,NNW,341,5.0,10.0,85,0.00,,,0.00,326.000000,,2013-04-05 01:42:00,
2013-04-04 16:12:00,56.0,49.0,-100.00,NW,311,6.0,11.0,78,0.00,,,0.00,383.000000,,2013-04-05 02:12:00,
2013-04-04 16:22:00,56.0,49.0,-100.00,NW,311,6.0,11.0,78,0.00,,,0.00,383.000000,,2013-04-05 02:22:00,
2013-04-04 16:32:00,56.0,49.0,-100.00,NW,311,6.0,11.0,78,0.00,,,0.00,383.000000,,2013-04-05 02:32:00,
2013-04-04 16:42:00,56.0,49.0,-100.00,NW,311,6.0,11.0,78,0.00,,,0.00,383.000000,,2013-04-05 02:42:00,
2013-04-04 17:12:00,51.0,48.0,-100.00,NNW,332,3.0,10.0,90,0.00,,,0.00,192.000000,,2013-04-05 03:12:00,
2013-04-04 17:22:00,51.0,48.0,-100.00,NNW,332,3.0,10.0,90,0.00,,,0.00,192.000000,,2013-04-05 03:22:00,
2013-04-04 17:32:00,51.0,48.0,-100.00,NNW,332,3.0,10.0,90,0.00,,,0.00,192.000000,,2013-04-05 03:32:00,
2013-04-04 17:43:00,51.0,48.0,-100.00,NNW,332,3.0,10.0,90,0.00,,,0.00,192.000000,,2013-04-05 03:43:00,
2013-04-04 18:12:00,50.0,47.0,-100.00,NNW,329,2.0,10.0,91,0.00,,,0.00,65.000000,,2013-04-05 04:12:00,
2013-04-04 18:22:00,50.0,47.0,-100.00,NNW,329,2.0,10.0,91,0.00,,,0.00,65.000000,,2013-04-05 04:22:00,
2013-04-04 18:32:00,50.0,47.0,-100.00,NNW,329,2.0,10.0,91,0.00,,,0.00,65.000000,,2013-04-05 04:32:00,
2013-04-04 18:42:00,50.0,47.0,-100.00,NNW,329,2.0,10.0,91,0.00,,,0.00,65.000000,,2013-04-05 04:42:00,
2013-04-04 19:12:00,47.0,45.0,-100.00,NNE,30,3.0,6.0,92,0.00,,,0.00,41.000000,,2013-04-05 05:12:00,
2013-04-04 19:22:00,47.0,45.0,-100.00,NNE,30,3.0,6.0,92,0.00,,,0.00,41.000000,,2013-04-05 05:22:00,
2013-04-04 19:32:00,47.0,45.0,-100.00,NNE,30,3.0,6.0,92,0.00,,,0.00,41.000000,,2013-04-05 05:32:00,
2013-04-04 19:42:00,47.0,45.0,-100.00,NNE,30,3.0,6.0,92,0.00,,,0.00,41.000000,,2013-04-05 05:42:00,
2013-04-04 20:12:00,45.0,39.0,-100.00,ESE,108,4.0,7.0,79,0.00,,,0.00,0.000000,,2013-04-05 06:12:00,
2013-04-04 20:22:00,45.0,39.0,-100.00,ESE,108,4.0,7.0,79,0.00,,,0.00,0.000000,,2013-04-05 06:22:00,
2013-04-04 20:32:00,45.0,39.0,-100.00,ESE,108,4.0,7.0,79,0.00,,,0.00,0.000000,,2013-04-05 06:32:00,
2013-04-04 20:42:00,45.0,39.0,-100.00,ESE,108,4.0,7.0,79,0.00,,,0.00,0.000000,,2013-04-05 06:42:00,
2013-04-04 21:12:00,46.0,33.0,-100.00,East,89,4.0,6.0,61,0.00,,,0.00,0.000000,,2013-04-05 07:12:00,
2013-04-04 21:22:00,46.0,33.0,-100.00,East,89,4.0,6.0,61,0.00,,,0.00,0.000000,,2013-04-05 07:22:00,
2013-04-04 21:32:00,46.0,33.0,-100.00,East,89,4.0,6.0,61,0.00,,,0.00,0.000000,,2013-04-05 07:32:00,
2013-04-04 21:42:00,46.0,33.0,-100.00,East,89,4.0,6.0,61,0.00,,,0.00,0.000000,,2013-04-05 07:42:00,
2013-04-04 22:12:00,46.0,25.0,-100.00,SE,143,4.0,8.0,43,0.00,,,0.00,0.000000,,2013-04-05 08:12:00,
2013-04-04 22:22:00,46.0,25.0,-100.00,SE,143,4.0,8.0,43,0.00,,,0.00,0.000000,,2013-04-05 08:22:00,
2013-04-04 22:32:00,46.0,25.0,-100.00,SE,143,4.0,8.0,43,0.00,,,0.00,0.000000,,2013-04-05 08:32:00,
2013-04-04 22:42:00,46.0,25.0,-100.00,SE,143,4.0,8.0,43,0.00,,,0.00,0.000000,,2013-04-05 08:42:00,
2013-04-04 23:12:00,44.0,30.0,-100.00,NE,51,3.0,8.0,58,0.00,,,0.00,0.000000,,2013-04-05 09:12:00,
2013-04-04 23:22:00,44.0,30.0,-100.00,NE,51,3.0,8.0,58,0.00,,,0.00,0.000000,,2013-04-05 09:22:00,
2013-04-04 23:32:00,44.0,30.0,-100.00,NE,51,3.0,8.0,58,0.00,,,0.00,0.000000,,2013-04-05 09:32:00,
2013-04-04 23:42:00,44.0,30.0,-100.00,NE,51,3.0,8.0,58,0.00,,,0.00,0.000000,,2013-04-05 09:42:00,